This is the latest recevied weather packets stored in our database for station/object IT9CNT. If no packets are shown the sender has not sent any weather packets the latest 10 day(s).
| Time | Temp. | Humidity | Pressure | Rain* | Wind** | Luminosity | Snow |
|---|---|---|---|---|---|---|---|
| 1787644143 | 30.56° C | 69% | 1013.4 hPa | 0 mm | - | - | - |
| 1787644084 | 31.11° C | 68% | 1013.3 hPa | 0 mm | - | - | - |
| 1787644023 | 31.67° C | 68% | 1013.6 hPa | 0 mm | - | - | - |
| 1787643963 | 31.67° C | 67% | 1013.5 hPa | 0 mm | - | - | - |
| 1787643903 | 31.11° C | 67% | 1013.4 hPa | 0 mm | - | - | - |
| 1787643844 | 31.67° C | 68% | 1013.5 hPa | 0 mm | - | - | - |
| 1787643783 | 31.67° C | 68% | 1013.2 hPa | 0 mm | - | - | - |
| 1787643723 | 31.67° C | 67% | 1013.7 hPa | 0 mm | - | - | - |
| 1787643663 | 31.67° C | 67% | 1013.5 hPa | 0 mm | - | - | - |
| 1787643603 | 31.67° C | 68% | 1013.2 hPa | 0 mm | - | - | - |
| 1787643543 | 31.67° C | 69% | 1013.4 hPa | 0 mm | - | - | - |
| 1787643483 | 32.22° C | 69% | 1013.6 hPa | 0 mm | - | - | - |
| 1787643423 | 31.67° C | 71% | 1013.4 hPa | 0 mm | - | - | - |
| 1787643363 | 31.67° C | 71% | 1013.2 hPa | 0 mm | - | - | - |
| 1787643303 | 31.67° C | 71% | 1013.4 hPa | 0 mm | - | - | - |
| 1787643243 | 31.67° C | 70% | 1013.5 hPa | 0 mm | - | - | - |
| 1787643183 | 31.67° C | 71% | 1013.2 hPa | 0 mm | - | - | - |
| 1787643123 | 31.67° C | 71% | 1013.5 hPa | 0 mm | - | - | - |
| 1787643063 | 31.67° C | 71% | 1013.3 hPa | 0 mm | - | - | - |
| 1787643003 | 31.67° C | 72% | 1013.4 hPa | 0 mm | - | - | - |
| 1787642943 | 31.67° C | 72% | 1013.4 hPa | 0 mm | - | - | - |
| 1787642883 | 31.67° C | 72% | 1013.2 hPa | 0 mm | - | - | - |
| 1787642823 | 31.67° C | 72% | 1013.1 hPa | 0 mm | - | - | - |
| 1787642763 | 31.67° C | 72% | 1013.4 hPa | 0 mm | - | - | - |
| 1787642703 | 31.67° C | 72% | 1013.4 hPa | 0 mm | - | - | - |
* Rain latest hour (hover to see other rain measurements)
** Current wind speed in m/s (hover to see current wind gust speed)